TimeCDT,TemperatureF,Dew PointF,Humidity,Sea Level PressureIn,VisibilityMPH,Wind Direction,Wind SpeedMPH,Gust SpeedMPH,PrecipitationIn,Events,Conditions,WindDirDegrees,DateUTC
12:35 AM,55.4,51.8,88,29.55,10.0,West,3.5,-,N/A,,Overcast,260,2012-10-18 05:35:00
12:55 AM,55.4,51.8,88,29.56,10.0,WSW,3.5,-,N/A,,Overcast,250,2012-10-18 05:55:00
1:15 AM,55.4,51.8,88,29.56,10.0,West,4.6,-,N/A,,Mostly Cloudy,280,2012-10-18 06:15:00
1:35 AM,53.6,51.8,94,29.57,10.0,Calm,Calm,-,N/A,,Scattered Clouds,0,2012-10-18 06:35:00
1:55 AM,53.6,50.0,88,29.57,10.0,West,4.6,-,N/A,,Clear,270,2012-10-18 06:55:00
2:15 AM,53.6,50.0,88,29.57,10.0,West,3.5,-,N/A,,Clear,260,2012-10-18 07:15:00
2:35 AM,53.6,50.0,88,29.57,10.0,WSW,5.8,-,N/A,,Clear,250,2012-10-18 07:35:00
2:55 AM,51.8,48.2,88,29.58,10.0,WSW,5.8,-,N/A,,Clear,250,2012-10-18 07:55:00
3:15 AM,51.8,48.2,88,29.59,10.0,WSW,8.1,-,N/A,,Clear,250,2012-10-18 08:15:00
3:35 AM,51.8,48.2,88,29.59,10.0,WSW,10.4,-,N/A,,Clear,240,2012-10-18 08:35:00
3:55 AM,51.8,48.2,88,29.59,10.0,WSW,8.1,18.4,N/A,,Clear,240,2012-10-18 08:55:00
4:15 AM,51.8,48.2,88,29.60,10.0,WSW,8.1,-,N/A,,Clear,250,2012-10-18 09:15:00
4:35 AM,51.8,48.2,88,29.61,10.0,WSW,8.1,-,N/A,,Clear,240,2012-10-18 09:35:00
4:55 AM,51.8,46.4,82,29.62,10.0,WSW,8.1,-,N/A,,Clear,250,2012-10-18 09:55:00
5:15 AM,51.8,46.4,82,29.62,10.0,WSW,8.1,-,N/A,,Clear,240,2012-10-18 10:15:00
5:35 AM,50.0,46.4,87,29.62,10.0,WSW,6.9,-,N/A,,Clear,240,2012-10-18 10:35:00
5:55 AM,48.2,44.6,87,29.62,10.0,SW,4.6,-,N/A,,Clear,230,2012-10-18 10:55:00
6:15 AM,48.2,44.6,87,29.62,10.0,SSW,4.6,-,N/A,,Clear,210,2012-10-18 11:15:00
6:35 AM,48.2,44.6,87,29.62,10.0,SSW,4.6,-,N/A,,Clear,210,2012-10-18 11:35:00
6:55 AM,48.2,44.6,87,29.63,10.0,SSW,5.8,-,N/A,,Clear,210,2012-10-18 11:55:00
7:15 AM,48.2,44.6,87,29.63,10.0,SSW,5.8,-,N/A,,Clear,200,2012-10-18 12:15:00
7:35 AM,48.2,44.6,87,29.63,10.0,SSW,5.8,-,N/A,,Clear,210,2012-10-18 12:35:00
7:55 AM,48.2,44.6,87,29.64,10.0,SSW,8.1,-,N/A,,Clear,210,2012-10-18 12:55:00
8:15 AM,50.0,46.4,87,29.64,10.0,SSW,8.1,-,N/A,,Clear,210,2012-10-18 13:15:00
8:35 AM,51.8,46.4,82,29.64,10.0,SW,8.1,-,N/A,,Clear,220,2012-10-18 13:35:00
8:55 AM,53.6,46.4,77,29.65,10.0,SW,8.1,-,N/A,,Clear,230,2012-10-18 13:55:00
9:15 AM,53.6,46.4,77,29.65,10.0,SW,11.5,16.1,N/A,,Clear,230,2012-10-18 14:15:00
9:35 AM,55.4,46.4,72,29.65,10.0,SW,11.5,17.3,N/A,,Clear,230,2012-10-18 14:35:00
9:55 AM,55.4,44.6,67,29.65,10.0,WSW,12.7,18.4,N/A,,Clear,240,2012-10-18 14:55:00
10:15 AM,57.2,42.8,59,29.65,10.0,WSW,15.0,-,N/A,,Clear,240,2012-10-18 15:15:00
10:35 AM,57.2,42.8,59,29.65,10.0,SW,16.1,19.6,N/A,,Clear,230,2012-10-18 15:35:00
10:55 AM,57.2,39.2,51,29.65,10.0,WSW,13.8,24.2,N/A,,Clear,240,2012-10-18 15:55:00
11:15 AM,59.0,37.4,45,29.65,10.0,SW,12.7,20.7,N/A,,Clear,220,2012-10-18 16:15:00
11:35 AM,59.0,35.6,42,29.65,10.0,SW,15.0,21.9,N/A,,Clear,230,2012-10-18 16:35:00
11:55 AM,60.8,33.8,36,29.64,10.0,SW,16.1,21.9,N/A,,Clear,230,2012-10-18 16:55:00
12:15 PM,62.6,33.8,34,29.64,10.0,WSW,15.0,28.8,N/A,,Clear,240,2012-10-18 17:15:00
12:35 PM,62.6,28.4,27,29.64,10.0,WSW,18.4,29.9,N/A,,Clear,250,2012-10-18 17:35:00
12:55 PM,62.6,28.4,27,29.63,10.0,SW,17.3,26.5,N/A,,Clear,230,2012-10-18 17:55:00
1:35 PM,62.6,24.8,24,29.62,10.0,WSW,18.4,27.6,N/A,,Clear,240,2012-10-18 18:35:00
1:55 PM,62.6,23.0,22,29.61,10.0,SW,18.4,31.1,N/A,,Clear,230,2012-10-18 18:55:00
2:15 PM,62.6,19.4,19,29.61,10.0,WSW,20.7,34.5,N/A,,Clear,240,2012-10-18 19:15:00
2:35 PM,62.6,21.2,20,29.60,10.0,WSW,23.0,31.1,N/A,,Clear,240,2012-10-18 19:35:00
2:55 PM,62.6,23.0,22,29.60,10.0,WSW,15.0,21.9,N/A,,Clear,250,2012-10-18 19:55:00
3:15 PM,64.4,24.8,22,29.61,10.0,WSW,13.8,26.5,N/A,,Clear,250,2012-10-18 20:15:00
3:35 PM,62.6,23.0,22,29.61,10.0,WSW,16.1,27.6,N/A,,Clear,240,2012-10-18 20:35:00
3:55 PM,62.6,23.0,22,29.61,10.0,WSW,17.3,29.9,N/A,,Clear,240,2012-10-18 20:55:00
4:15 PM,62.6,24.8,24,29.61,10.0,WSW,16.1,26.5,N/A,,Clear,240,2012-10-18 21:15:00
4:35 PM,62.6,24.8,24,29.61,10.0,SW,11.5,25.3,N/A,,Clear,230,2012-10-18 21:35:00
4:55 PM,62.6,26.6,26,29.61,10.0,SW,11.5,21.9,N/A,,Clear,230,2012-10-18 21:55:00
5:15 PM,60.8,24.8,25,29.62,10.0,SW,15.0,20.7,N/A,,Clear,230,2012-10-18 22:15:00
5:35 PM,60.8,28.4,29,29.62,10.0,SW,9.2,18.4,N/A,,Clear,230,2012-10-18 22:35:00
5:55 PM,59.0,28.4,31,29.63,10.0,SW,10.4,-,N/A,,Clear,220,2012-10-18 22:55:00
6:15 PM,59.0,28.4,31,29.63,10.0,SW,8.1,-,N/A,,Mostly Cloudy,220,2012-10-18 23:15:00
6:35 PM,57.2,30.2,36,29.64,10.0,SW,6.9,-,N/A,,Mostly Cloudy,220,2012-10-18 23:35:00
6:55 PM,57.2,30.2,36,29.64,10.0,SW,6.9,-,N/A,,Scattered Clouds,220,2012-10-18 23:55:00
7:15 PM,57.2,30.2,36,29.64,10.0,SSW,6.9,-,N/A,,Mostly Cloudy,210,2012-10-19 00:15:00
7:35 PM,57.2,32.0,38,29.64,10.0,SSW,6.9,-,N/A,,Overcast,210,2012-10-19 00:35:00
7:55 PM,57.2,33.8,41,29.64,10.0,SSW,6.9,-,N/A,,Overcast,200,2012-10-19 00:55:00
8:15 PM,55.4,35.6,47,29.64,10.0,SSW,5.8,-,N/A,,Overcast,210,2012-10-19 01:15:00
8:35 PM,55.4,35.6,47,29.64,10.0,Calm,Calm,-,N/A,,Mostly Cloudy,0,2012-10-19 01:35:00
8:55 PM,55.4,35.6,47,29.63,10.0,SSW,5.8,-,N/A,,Mostly Cloudy,210,2012-10-19 01:55:00
9:15 PM,55.4,35.6,47,29.62,10.0,SSW,4.6,-,N/A,,Overcast,200,2012-10-19 02:15:00
9:35 PM,55.4,35.6,47,29.62,10.0,SSW,6.9,-,N/A,,Scattered Clouds,200,2012-10-19 02:35:00
9:55 PM,55.4,37.4,51,29.61,10.0,South,6.9,-,N/A,,Clear,190,2012-10-19 02:55:00
10:15 PM,53.6,37.4,54,29.60,10.0,South,8.1,-,N/A,,Scattered Clouds,190,2012-10-19 03:15:00
10:35 PM,53.6,39.2,58,29.59,10.0,SSW,6.9,-,N/A,,Scattered Clouds,200,2012-10-19 03:35:00
10:55 PM,53.6,37.4,54,29.59,10.0,SSW,6.9,-,N/A,,Scattered Clouds,200,2012-10-19 03:55:00